Location: Kitchener
(43.4500°N, 80.5000°W)
Time: 09:31:27
(UTC-04:00)

Tiangong 2 - Visible Passes

Search period start: 27 May 2018 00:00
Search period end: 06 June 2018 00:00
Orbit: 382 x 385 km, 42.8° (Epoch: 27 May)

Date Brightness Start Highest point End Pass type
(mag) Time Alt. Az. Time Alt. Az. Time Alt. Az.
27 May 1.0 21:57:06 10° W 22:00:15 81° S 22:03:04 12° E visible
27 May 3.0 23:33:52 10° W 23:35:15 22° WSW 23:35:15 22° WSW visible
28 May 1.1 22:34:00 10° W 22:37:06 58° SSW 22:38:01 38° SE visible
29 May 1.0 21:34:09 10° W 21:37:19 73° S 21:40:27 10° ESE visible
29 May 2.7 23:11:02 10° W 23:12:56 24° SW 23:12:56 24° SW visible
30 May 1.6 22:11:04 10° W 22:14:04 42° SSW 22:15:39 23° SE visible
31 May 2.9 22:48:23 10° WSW 22:50:34 18° SSW 22:50:34 18° SSW visible
01 Jun 2.3 21:48:11 10° W 21:50:58 28° SSW 21:53:18 13° SSE visible
02 Jun 3.5 22:26:22 10° SW 22:27:24 11° SW 22:28:15 10° SSW visible
